Orbital elements of AMC-15
| Launched | 13 October 2004 |
| Flight ended | – |
| Launch site | Tyuratam Missile and Space Center, Kazakhstan (Also known as Baikonur Cosmodrome) |
| Owner | SES |
| NORAD ID | 28446 |
| Date fetched |
Epoch osculation |
Inc. [°] |
Ecc. | RA asc node [hr] |
Arg Peri. [°] |
Mean anom [°] |
Mean motion [rev/day] |
Abs. mag |
| Date fetched |
Epoch osculation |
Inc. [°] |
Ecc. | RA asc node [hr] |
Arg Peri. [°] |
Mean anom [°] |
Mean motion [rev/day] |
Abs. mag |
| 2026 May 09 17:57 | 2026 May 09 03:54:38 | 0.0208 | 0.00026 | 23.4453 | 72.5601 | 116.3702 | 1.00272 | 5.243 |
| 2026 May 08 17:57 | 2026 May 08 03:58:41 | 0.0192 | 0.00026 | 22.8688 | 79.4209 | 116.3702 | 1.00272 | 5.243 |
| 2026 May 07 17:58 | 2026 May 07 05:56:36 | 0.0270 | 0.00026 | 1.1752 | 42.4399 | 116.3702 | 1.00272 | 5.243 |
| 2026 May 06 17:57 | 2026 May 06 12:39:25 | 0.0244 | 0.00026 | 0.4984 | 51.0373 | 116.3702 | 1.00272 | 5.243 |
| 2026 May 05 17:57 | 2026 May 05 10:45:54 | 0.0331 | 0.00026 | 2.4278 | 18.9675 | 116.3702 | 1.00272 | 5.243 |
| 2026 May 04 17:57 | 2026 May 04 12:22:58 | 0.0307 | 0.00026 | 1.7284 | 27.8361 | 116.3702 | 1.00272 | 5.243 |
| 2026 May 03 17:57 | 2026 May 03 05:10:14 | 0.0441 | 0.00025 | 4.0453 | 344.9819 | 116.3702 | 1.00272 | 5.243 |
| 2026 May 02 17:57 | 2026 May 02 06:04:02 | 0.0448 | 0.00025 | 3.9180 | 348.0637 | 116.3702 | 1.00272 | 5.243 |
| 2026 May 01 17:56 | 2026 May 01 11:46:44 | 0.0519 | 0.00025 | 4.5298 | 336.3172 | 116.3702 | 1.00272 | 5.243 |
| 2026 Apr 30 17:56 | 2026 Apr 29 21:29:48 | 0.0334 | 0.00025 | 4.0393 | 338.8200 | 116.3702 | 1.00272 | 5.243 |
| 2026 Apr 29 17:57 | 2026 Apr 29 11:13:39 | 0.0207 | 0.00026 | 3.2119 | 356.7795 | 116.3702 | 1.00272 | 5.243 |
| 2026 Apr 28 17:56 | 2026 Apr 28 10:33:27 | 0.0179 | 0.00025 | 3.3385 | 352.0012 | 116.3702 | 1.00272 | 5.243 |
| 2026 Apr 27 17:58 | 2026 Apr 27 11:42:08 | 0.0172 | 0.00018 | 3.7470 | 327.6818 | 116.3702 | 1.00272 | 5.243 |
| 2026 Apr 26 17:58 | 2026 Apr 25 15:00:38 | 0.0492 | 0.00026 | 3.6485 | 337.2203 | 116.3702 | 1.00272 | 5.243 |
| 2026 Apr 25 17:58 | 2026 Apr 25 11:38:21 | 0.0527 | 0.00024 | 4.3728 | 319.3081 | 116.3702 | 1.00272 | 5.243 |
| 2026 Apr 24 17:59 | 2026 Apr 23 23:27:52 | 0.0521 | 0.00023 | 4.2454 | 348.9145 | 116.3702 | 1.00272 | 5.243 |
| 2026 Apr 23 17:57 | 2026 Apr 23 03:47:38 | 0.0523 | 0.00023 | 4.1813 | 348.2464 | 116.3702 | 1.00272 | 5.243 |
| 2026 Apr 22 17:57 | 2026 Apr 22 06:30:40 | 0.0518 | 0.00022 | 4.2593 | 345.2282 | 116.3702 | 1.00272 | 5.243 |
| 2026 Apr 21 17:57 | 2026 Apr 21 11:34:08 | 0.0507 | 0.00022 | 3.9524 | 348.1809 | 116.3702 | 1.00272 | 5.243 |
| 2026 Apr 20 17:57 | 2026 Apr 20 11:41:38 | 0.0583 | 0.00022 | 4.1094 | 343.8656 | 116.3702 | 1.00272 | 5.243 |
| 2026 Apr 19 17:58 | 2026 Apr 19 12:01:38 | 0.0611 | 0.00022 | 4.2390 | 340.4806 | 116.3702 | 1.00272 | 5.243 |
| 2026 Apr 18 17:56 | 2026 Apr 18 06:36:43 | 0.0579 | 0.00022 | 3.9630 | 342.4454 | 116.3702 | 1.00272 | 5.243 |
| 2026 Apr 16 17:57 | 2026 Apr 16 05:11:38 | 0.0604 | 0.00022 | 4.1127 | 337.2985 | 116.3702 | 1.00272 | 5.243 |
| 2026 Apr 14 17:57 | 2026 Apr 14 06:06:38 | 0.0646 | 0.00022 | 4.3326 | 330.1036 | 116.3702 | 1.00272 | 5.243 |
| 2026 Apr 13 17:57 | 2026 Apr 13 05:04:02 | 0.0620 | 0.00022 | 4.2550 | 330.1020 | 116.3702 | 1.00272 | 5.243 |
| 2026 Apr 12 17:57 | 2026 Apr 12 11:57:15 | 0.0605 | 0.00022 | 4.2112 | 330.0554 | 116.3702 | 1.00272 | 5.243 |